SWAS

Last updated on Thu Sep 10 2026 00:03:32 GMT+0000 (Coordinated Universal Time)

1 25560U 98071A 26252.48594535 .00003165 00000+0 20038-3 0 9993 2 25560 69.8979 10.0516 0003591 154.6636 205.4705 15.10063087509996
UTC large
Height (km)
Speed (km/s)
/
Latitude / Longitude
Inclination (degrees)
Orbital Period (minutes)
Azimuth
Elevation
Range (km)
Doppler Factor

Next 0 passes for location: London (51.5072 / 0.1276)

No passes found over London.
SWAS